Regional Weather Roundup
Issued by NWS Albany, NY

Home | Current Version | Previous Version | Graphics & Text | Print | Product List | Glossary Off
Versions: 1 2 3 4 5 6 7 8 9 10 11 12 13 14 15 16 17 18 19 20 21 22 23 24 25 26 27 28

000
ASUS41 KALY 231310
RWRALY

NEW YORK STATE HOURLY WEATHER ROUNDUP
NATIONAL WEATHER SERVICE ALBANY NY
800 AM EST THU NOV 23 2017

NOTE: "FAIR" INDICATES FEW OR NO CLOUDS BELOW 12,000 FEET WITH NO
SIGNIFICANT WEATHER AND/OR NO OBSTRUCTIONS TO VISIBILITY.

NYZ032-033-038>043-046>054-057>066-NYZ062>081-082-084-231400-
EAST


CITY           SKY/WX    TMP DP  RH WIND       PRES   REMARKS
ALBANY         PTCLDY    28  17  63 W9        30.12R WCI  19
GLENS FALLS    CLEAR     24  16  71 NE6       30.12S WCI  17
POUGHKEEPSIE   CLEAR     25  20  81 CALM      30.11R
NEWBURGH       CLEAR     27  21  80 NW6       30.11R WCI  20
MONTGOMERY     PTCLDY    30  19  63 NW7       30.09R WCI  23
WHITE PLAINS   PTCLDY    31  20  63 N8        30.09R WCI  23
ISLIP          MOSUNNY   33  24  69 W5        30.10R WCI  29
NEW YORK CITY  MOSUNNY   35  21  56 NW10      30.12R WCI  27
CENTRAL PARK   CLEAR     32  19  58 VRB3      30.13S
$$

NYZ005>009-017-018-044>046-055-056-231400-
CENTRAL


CITY           SKY/WX    TMP DP  RH WIND       PRES   REMARKS
FULTON         CLOUDY    29  23  78 S5        30.12F WCI  24
SYRACUSE       CLOUDY    28  21  75 CALM      30.13S
ROME           PTCLDY    26  21  81 CALM      30.13S
ELMIRA         CLOUDY    27  20  75 CALM      30.12F
BINGHAMTON     CLOUDY    25  17  72 NW7       30.07R WCI  17
MONTICELLO     PTCLDY    26  18  71 NW12G20   30.07R WCI  16
$$

NYZ026>034-041>043-087-231400-
NORTH


CITY           SKY/WX    TMP DP  RH WIND       PRES   REMARKS
WATERTOWN      CLOUDY    24  21  88 CALM      30.12F
FORT DRUM      NOT AVBL
OGDENSBURG     FAIR      22  19  89 CALM      30.11F
MASSENA        CLEAR     19  17  92 S3        30.15S
SARANAC LAKE   CLOUDY    14  12  92 S3        30.02F FOG
PLATTSBURGH    CLEAR     22  11  62 NW3       30.13S
$$

NYZ001>004-010>016-019>021-085-231400-
WEST


CITY           SKY/WX    TMP DP  RH WIND       PRES   REMARKS
NIAGARA FALLS  CLOUDY    32  20  61 W6        30.10S WCI  26
BUFFALO        CLOUDY    30  22  72 S6        30.11R WCI  24
DUNKIRK        CLOUDY    31  24  75 S8        30.11S WCI  23
JAMESTOWN      CLOUDY    26  24  92 S6        30.07S WCI  19
WELLSVILLE     CLOUDY    28  18  66 SW6       30.06S WCI  22
ROCHESTER      CLOUDY    30  23  75 SW6       30.12S WCI  24
PENN YAN       CLOUDY    30  18  60 SW5       30.11S WCI  25
$$

             KEY
       WCI = WIND CHILL INDEX
       VSB = VISIBILITY
       HX  = HEAT INDEX
$$




USA.gov is the U.S. government's official web portal to all federal, state and local government web resources and services.